Time,TemperatureF,DewpointF,PressureIn,WindDirection,WindDirectionDegrees,WindSpeedMPH,WindSpeedGustMPH,Humidity,HourlyPrecipIn,Conditions,Clouds,dailyrainin,SoftwareType,DateUTC
2013-11-05 00:05:00,44.6,41.0,30.28,South,169,5.0,6.0,88,0.00,,,0.00,weatherlink.com 1.10,2013-11-05 05:05:00,
2013-11-05 00:20:00,44.6,41.0,30.27,SSE,163,4.0,6.0,88,0.00,,,0.00,weatherlink.com 1.10,2013-11-05 05:20:00,
2013-11-05 00:35:00,44.5,42.0,30.28,SSE,158,4.0,5.0,89,0.00,,,0.00,weatherlink.com 1.10,2013-11-05 05:35:00,
2013-11-05 00:50:00,46.0,43.0,30.29,SSE,153,0.0,7.0,88,0.00,,,0.00,weatherlink.com 1.10,2013-11-05 05:50:00,
2013-11-05 01:05:00,46.6,43.0,30.28,SSE,158,2.0,6.0,86,0.00,,,0.00,weatherlink.com 1.10,2013-11-05 06:05:00,
2013-11-05 01:20:00,46.9,43.0,30.28,SSE,159,2.0,6.0,86,0.00,,,0.00,weatherlink.com 1.10,2013-11-05 06:20:00,
2013-11-05 01:35:00,47.2,43.0,30.29,South,174,3.0,6.0,85,0.00,,,0.00,weatherlink.com 1.10,2013-11-05 06:35:00,
2013-11-05 01:50:00,47.0,43.0,30.28,SSE,164,2.0,6.0,85,0.00,,,0.00,weatherlink.com 1.10,2013-11-05 06:50:00,
2013-11-05 02:05:00,46.2,42.0,30.29,SSE,164,0.0,4.0,85,0.00,,,0.00,weatherlink.com 1.10,2013-11-05 07:05:00,
2013-11-05 02:20:00,46.6,43.0,30.29,SSE,163,0.0,5.0,86,0.00,,,0.00,weatherlink.com 1.10,2013-11-05 07:20:00,
2013-11-05 02:35:00,47.0,43.0,30.29,SSE,163,2.0,5.0,85,0.00,,,0.00,weatherlink.com 1.10,2013-11-05 07:35:00,
2013-11-05 02:50:00,47.0,43.0,30.29,South,178,2.0,7.0,85,0.00,,,0.00,weatherlink.com 1.10,2013-11-05 07:50:00,
2013-11-05 03:05:00,47.0,43.0,30.29,SSE,163,3.0,5.0,85,0.00,,,0.00,weatherlink.com 1.10,2013-11-05 08:05:00,
2013-11-05 03:20:00,47.4,43.0,30.29,SSE,161,5.0,6.0,84,0.00,,,0.00,weatherlink.com 1.10,2013-11-05 08:20:00,
2013-11-05 03:35:00,47.6,43.0,30.29,SSE,151,1.0,4.0,83,0.00,,,0.00,weatherlink.com 1.10,2013-11-05 08:35:00,
2013-11-05 03:50:00,47.3,43.0,30.30,SSE,159,3.0,5.0,84,0.00,,,0.00,weatherlink.com 1.10,2013-11-05 08:50:00,
2013-11-05 04:05:00,46.9,43.0,30.29,SSE,163,4.0,5.0,85,0.00,,,0.00,weatherlink.com 1.10,2013-11-05 09:05:00,
2013-11-05 04:20:00,46.9,43.0,30.29,South,178,0.0,5.0,85,0.00,,,0.00,weatherlink.com 1.10,2013-11-05 09:20:00,
2013-11-05 04:35:00,46.9,43.0,30.29,SSE,166,3.0,5.0,85,0.00,,,0.00,weatherlink.com 1.10,2013-11-05 09:35:00,
2013-11-05 04:50:00,47.0,43.0,30.30,South,173,3.0,6.0,85,0.00,,,0.00,weatherlink.com 1.10,2013-11-05 09:50:00,
2013-11-05 05:05:00,47.2,43.0,30.30,SSE,166,3.0,5.0,85,0.00,,,0.00,weatherlink.com 1.10,2013-11-05 10:05:00,
2013-11-05 05:20:00,47.3,43.0,30.30,South,180,0.0,4.0,84,0.00,,,0.00,weatherlink.com 1.10,2013-11-05 10:20:00,
2013-11-05 05:35:00,47.5,43.0,30.31,South,180,1.0,3.0,84,0.00,,,0.00,weatherlink.com 1.10,2013-11-05 10:35:00,
2013-11-05 05:50:00,47.6,43.0,30.31,SSE,163,1.0,3.0,84,0.00,,,0.00,weatherlink.com 1.10,2013-11-05 10:50:00,
2013-11-05 06:05:00,47.8,43.0,30.31,SSW,192,1.0,4.0,83,0.00,,,0.00,weatherlink.com 1.10,2013-11-05 11:05:00,
2013-11-05 06:20:00,48.0,43.0,30.30,South,186,1.0,3.0,83,0.00,,,0.00,weatherlink.com 1.10,2013-11-05 11:20:00,
2013-11-05 06:35:00,48.1,43.0,30.31,South,186,0.0,3.0,83,0.00,,,0.00,weatherlink.com 1.10,2013-11-05 11:35:00,
2013-11-05 06:50:00,48.1,43.0,30.31,South,186,1.0,3.0,83,0.00,,,0.00,weatherlink.com 1.10,2013-11-05 11:50:00,
2013-11-05 07:06:00,47.8,43.0,30.31,South,186,0.0,2.0,84,0.00,,,0.00,weatherlink.com 1.10,2013-11-05 12:06:00,
2013-11-05 07:20:00,47.6,43.0,30.31,South,186,1.0,2.0,85,0.00,,,0.00,weatherlink.com 1.10,2013-11-05 12:20:00,
2013-11-05 07:35:00,47.3,43.0,30.32,South,186,0.0,2.0,86,0.00,,,0.00,weatherlink.com 1.10,2013-11-05 12:35:00,
2013-11-05 07:51:00,47.2,43.0,30.32,South,186,0.0,3.0,86,0.00,,,0.00,weatherlink.com 1.10,2013-11-05 12:51:00,
2013-11-05 08:06:00,47.4,43.0,30.32,South,186,0.0,3.0,86,0.00,,,0.00,weatherlink.com 1.10,2013-11-05 13:06:00,
2013-11-05 08:21:00,47.7,44.0,30.32,South,186,2.0,4.0,86,0.00,,,0.00,weatherlink.com 1.10,2013-11-05 13:21:00,
2013-11-05 08:36:00,48.1,44.0,30.33,South,184,2.0,4.0,85,0.00,,,0.00,weatherlink.com 1.10,2013-11-05 13:36:00,
2013-11-05 08:51:00,48.3,44.0,30.33,South,180,1.0,4.0,85,0.00,,,0.00,weatherlink.com 1.10,2013-11-05 13:51:00,
2013-11-05 09:06:00,48.4,44.0,30.34,SSE,165,2.0,4.0,85,0.00,,,0.00,weatherlink.com 1.10,2013-11-05 14:06:00,
2013-11-05 09:21:00,48.5,44.0,30.34,SSE,153,2.0,5.0,85,0.00,,,0.00,weatherlink.com 1.10,2013-11-05 14:21:00,
2013-11-05 09:36:00,48.7,45.0,30.34,South,171,4.0,7.0,86,0.00,,,0.00,weatherlink.com 1.10,2013-11-05 14:36:00,
2013-11-05 09:51:00,48.8,45.0,30.34,SSE,152,1.0,6.0,88,0.00,,,0.00,weatherlink.com 1.10,2013-11-05 14:51:00,
2013-11-05 10:06:00,49.0,46.0,30.34,SSE,163,0.0,5.0,88,0.00,,,0.00,weatherlink.com 1.10,2013-11-05 15:06:00,
2013-11-05 10:21:00,49.4,46.0,30.33,South,173,0.0,6.0,89,0.00,,,0.00,weatherlink.com 1.10,2013-11-05 15:21:00,
2013-11-05 10:37:00,49.8,47.0,30.33,South,176,2.0,5.0,90,0.00,,,0.00,weatherlink.com 1.10,2013-11-05 15:37:00,
2013-11-05 10:51:00,50.5,48.0,30.34,South,175,2.0,6.0,91,0.00,,,0.00,weatherlink.com 1.10,2013-11-05 15:51:00,
2013-11-05 11:06:00,50.8,48.0,30.34,South,182,0.0,5.0,91,0.00,,,0.00,weatherlink.com 1.10,2013-11-05 16:06:00,
2013-11-05 11:21:00,51.2,49.0,30.34,SSE,167,2.0,5.0,92,0.00,,,0.00,weatherlink.com 1.10,2013-11-05 16:21:00,
2013-11-05 11:36:00,51.6,49.0,30.34,South,188,3.0,5.0,92,0.00,,,0.00,weatherlink.com 1.10,2013-11-05 16:36:00,
2013-11-05 11:51:00,51.7,50.0,30.33,South,191,3.0,9.0,92,0.00,,,0.00,weatherlink.com 1.10,2013-11-05 16:51:00,
2013-11-05 12:06:00,51.5,49.0,30.33,SSW,206,0.0,6.0,92,0.00,,,0.00,weatherlink.com 1.10,2013-11-05 17:06:00,
2013-11-05 12:21:00,51.4,49.0,30.32,South,191,5.0,9.0,92,0.00,,,0.00,weatherlink.com 1.10,2013-11-05 17:21:00,
2013-11-05 12:36:00,51.7,50.0,30.31,SSE,162,0.0,6.0,92,0.00,,,0.00,weatherlink.com 1.10,2013-11-05 17:36:00,
2013-11-05 12:51:00,52.1,50.0,30.30,South,180,3.0,8.0,91,0.00,,,0.00,weatherlink.com 1.10,2013-11-05 17:51:00,
2013-11-05 13:06:00,52.4,50.0,30.30,South,182,0.0,4.0,90,0.00,,,0.00,weatherlink.com 1.10,2013-11-05 18:06:00,
2013-11-05 13:21:00,53.0,50.0,30.30,SSE,165,2.0,6.0,89,0.00,,,0.00,weatherlink.com 1.10,2013-11-05 18:21:00,
2013-11-05 13:36:00,53.3,50.0,30.29,SSE,157,3.0,8.0,88,0.00,,,0.00,weatherlink.com 1.10,2013-11-05 18:36:00,
2013-11-05 13:51:00,53.6,50.0,30.29,SSE,153,1.0,7.0,87,0.00,,,0.00,weatherlink.com 1.10,2013-11-05 18:51:00,
2013-11-05 14:06:00,54.2,50.0,30.28,SSE,165,5.0,8.0,86,0.00,,,0.00,weatherlink.com 1.10,2013-11-05 19:06:00,
2013-11-05 14:21:00,54.8,50.0,30.28,SSE,165,2.0,9.0,83,0.00,,,0.00,weatherlink.com 1.10,2013-11-05 19:21:00,
2013-11-05 14:36:00,54.8,49.0,30.27,South,172,5.0,11.0,81,0.00,,,0.00,weatherlink.com 1.10,2013-11-05 19:36:00,
2013-11-05 14:51:00,54.9,49.0,30.27,SE,146,7.0,9.0,81,0.00,,,0.00,weatherlink.com 1.10,2013-11-05 19:51:00,
2013-11-05 15:06:00,54.8,49.0,30.25,SSE,159,5.0,9.0,80,0.00,,,0.00,weatherlink.com 1.10,2013-11-05 20:06:00,
2013-11-05 15:21:00,55.2,49.0,30.25,SE,146,7.0,7.0,80,0.00,,,0.00,weatherlink.com 1.10,2013-11-05 20:21:00,
2013-11-05 15:36:00,55.4,50.0,30.25,SE,141,5.0,7.0,81,0.00,,,0.00,weatherlink.com 1.10,2013-11-05 20:36:00,
2013-11-05 15:51:00,55.3,50.0,30.25,SSE,161,5.0,9.0,81,0.00,,,0.00,weatherlink.com 1.10,2013-11-05 20:51:00,
2013-11-05 16:06:00,55.3,50.0,30.26,SSE,167,3.0,6.0,81,0.00,,,0.00,weatherlink.com 1.10,2013-11-05 21:06:00,
2013-11-05 16:21:00,55.2,49.0,30.24,SE,133,4.0,7.0,80,0.00,,,0.00,weatherlink.com 1.10,2013-11-05 21:21:00,
2013-11-05 16:36:00,55.0,48.0,30.24,SE,138,4.0,8.0,78,0.00,,,0.00,weatherlink.com 1.10,2013-11-05 21:36:00,
2013-11-05 16:51:00,54.7,48.0,30.23,SSE,149,5.0,8.0,78,0.00,,,0.00,weatherlink.com 1.10,2013-11-05 21:51:00,
2013-11-05 17:06:00,54.4,48.0,30.23,SE,143,2.0,7.0,78,0.00,,,0.00,weatherlink.com 1.10,2013-11-05 22:06:00,
2013-11-05 17:21:00,53.9,48.0,30.24,SSE,164,4.0,6.0,79,0.00,,,0.00,weatherlink.com 1.10,2013-11-05 22:21:00,
2013-11-05 17:36:00,53.7,47.0,30.23,SE,142,3.0,8.0,79,0.00,,,0.00,weatherlink.com 1.10,2013-11-05 22:36:00,
2013-11-05 17:51:00,53.5,47.0,30.22,SSE,153,6.0,9.0,79,0.00,,,0.00,weatherlink.com 1.10,2013-11-05 22:51:00,
2013-11-05 18:06:00,53.7,47.0,30.22,SE,134,6.0,9.0,79,0.00,,,0.00,weatherlink.com 1.10,2013-11-05 23:06:00,
2013-11-05 18:21:00,53.7,47.0,30.22,SE,142,5.0,11.0,79,0.00,,,0.00,weatherlink.com 1.10,2013-11-05 23:21:00,
2013-11-05 18:36:00,53.5,47.0,30.22,SE,146,10.0,12.0,78,0.00,,,0.00,weatherlink.com 1.10,2013-11-05 23:36:00,
2013-11-05 18:52:00,53.2,47.0,30.22,SE,133,9.0,11.0,78,0.00,,,0.00,weatherlink.com 1.10,2013-11-05 23:52:00,
2013-11-05 19:06:00,53.2,47.0,30.22,SE,133,7.0,11.0,78,0.00,,,0.00,weatherlink.com 1.10,2013-11-06 00:06:00,
2013-11-05 19:21:00,53.1,46.0,30.21,SSE,149,7.0,12.0,78,0.00,,,0.00,weatherlink.com 1.10,2013-11-06 00:21:00,
2013-11-05 19:37:00,53.0,46.0,30.21,SE,137,7.0,13.0,78,0.00,,,0.00,weatherlink.com 1.10,2013-11-06 00:37:00,
2013-11-05 19:52:00,52.8,46.0,30.21,SSE,165,5.0,12.0,79,0.00,,,0.00,weatherlink.com 1.10,2013-11-06 00:52:00,
2013-11-05 20:07:00,52.8,46.0,30.20,SSE,147,4.0,11.0,79,0.00,,,0.00,weatherlink.com 1.10,2013-11-06 01:07:00,
2013-11-05 20:22:00,52.8,46.0,30.20,SSE,159,6.0,11.0,78,0.00,,,0.00,weatherlink.com 1.10,2013-11-06 01:22:00,
2013-11-05 20:37:00,52.8,46.0,30.19,SSE,156,6.0,12.0,78,0.00,,,0.00,weatherlink.com 1.10,2013-11-06 01:37:00,
2013-11-05 20:52:00,53.0,46.0,30.18,SE,144,9.0,14.0,78,0.00,,,0.00,weatherlink.com 1.10,2013-11-06 01:52:00,
2013-11-05 21:07:00,53.3,46.0,30.18,SSE,149,5.0,12.0,77,0.00,,,0.00,weatherlink.com 1.10,2013-11-06 02:07:00,
2013-11-05 21:22:00,53.3,46.0,30.18,SE,143,6.0,12.0,77,0.00,,,0.00,weatherlink.com 1.10,2013-11-06 02:22:00,
2013-11-05 21:37:00,53.3,46.0,30.17,SSE,148,8.0,12.0,77,0.00,,,0.00,weatherlink.com 1.10,2013-11-06 02:37:00,
2013-11-05 21:52:00,53.1,46.0,30.17,SSE,160,4.0,11.0,77,0.00,,,0.00,weatherlink.com 1.10,2013-11-06 02:52:00,
2013-11-05 22:07:00,53.3,46.0,30.16,SE,132,11.0,11.0,77,0.00,,,0.00,weatherlink.com 1.10,2013-11-06 03:07:00,
2013-11-05 22:22:00,53.5,46.0,30.16,SSE,161,8.0,11.0,76,0.00,,,0.00,weatherlink.com 1.10,2013-11-06 03:22:00,
2013-11-05 22:37:00,53.9,46.0,30.15,SSE,153,6.0,13.0,74,0.00,,,0.00,weatherlink.com 1.10,2013-11-06 03:37:00,
2013-11-05 22:52:00,54.0,46.0,30.14,SSE,161,14.0,15.0,73,0.00,,,0.00,weatherlink.com 1.10,2013-11-06 03:52:00,
2013-11-05 23:07:00,54.2,45.0,30.14,SSE,157,7.0,15.0,72,0.00,,,0.00,weatherlink.com 1.10,2013-11-06 04:07:00,
2013-11-05 23:22:00,54.0,45.0,30.13,SSE,161,7.0,16.0,72,0.00,,,0.00,weatherlink.com 1.10,2013-11-06 04:22:00,
2013-11-05 23:37:00,54.1,45.0,30.12,SSE,150,10.0,14.0,72,0.00,,,0.00,weatherlink.com 1.10,2013-11-06 04:37:00,
2013-11-05 23:52:00,54.5,45.0,30.12,South,172,8.0,19.0,70,0.00,,,0.00,weatherlink.com 1.10,2013-11-06 04:52:00,